[[{"header":{"parameterUnit":"m.s-1","parameterCategory":1,"la1":30.2992,"la2":30.254,"lo1":-89.0895,"lo2":-89.0443,"dy":0.0025,"dx":0.0025,"nx":19,"ny":19,"refTime":"2026-05-02T03:00:00:Z","depth":0,"parameterNumber":2,"parameterNumberName":"U-component_of_WINDS"},"data":[0,0,0,1.3927,1.3928,1.4003,1.4004,1.4113,1.4114,0,0,0,0,0,0,0,0,0,0,0,1.3908,1.3909,1.3926,1.3928,1.4003,1.4004,1.4113,1.4114,0,0,0,0,0,0,0,0,0,0,0,1.3907,1.3908,1.3909,1.3929,1.4003,1.4004,1.4113,1.4053,0,0,0,0,0,0,0,0,0,0,1.3978,1.3963,1.3908,1.3909,1.3929,1.4003,1.4004,1.4049,1.4056,1.4084,0,1.4105,0,1.4111,1.4122,1.4123,0,0,0,1.3927,1.3957,1.3974,1.391,1.393,1.4003,1.3969,1.4053,1.4061,1.4093,1.4106,1.411,1.4113,1.4123,1.4124,1.4279,1.4279,0,0,1.3923,1.3924,1.3968,1.3979,1.3963,1.3967,1.3971,1.4058,1.4074,1.4107,1.4113,1.4115,1.4124,1.4125,1.4278,1.4279,0,0,0,1.3912,1.3921,1.3936,1.3974,1.3987,1.3969,1.3974,1.407,1.4075,1.4114,1.4116,1.4124,1.4126,1.4277,1.4278,1.4318,0,0,0,1.3909,1.3915,1.3934,1.3936,1.3985,1.4028,1.3985,1.4069,1.4078,1.4116,1.4124,1.4127,1.4276,1.4278,1.4315,1.4338,0,0,0,1.3902,1.3914,1.3926,1.3936,1.3967,1.4027,1.4036,1.4071,1.408,1.4123,1.4127,1.4275,1.4277,1.4313,1.4333,1.4381,0,0,0,1.3895,1.3961,1.3926,1.4001,1.3967,1.405,1.4036,1.4098,1.4139,1.4125,1.4276,1.4278,1.4312,1.4331,1.4378,1.4421,1.4438,0,0,1.3979,1.3971,1.4015,1.3986,1.4075,1.4038,1.4135,1.4173,1.4178,1.4246,1.425,1.4316,1.4333,1.438,1.4534,1.4548,0,0,0,1.4042,1.4074,1.4097,1.4135,1.4164,1.4192,1.4215,1.423,1.4287,1.4211,1.4345,1.4355,1.4383,1.4404,1.4416,1.4441,1.4287,1.4287,1.4287,1.4164,1.4164,1.4238,1.4248,1.4286,1.4309,1.4341,1.4366,1.4356,1.4389,1.4409,1.4502,1.4526,1.4535,1.4561,1.4431,1.4431,1.4431,1.4431,1.4288,1.4334,1.4319,1.4386,1.4388,1.4446,1.4473,1.4465,1.4522,1.4486,1.451,1.4472,1.455,1.4573,1.4434,1.4434,1.4434,1.4433,1.4433,1.4368,1.4391,1.4406,1.4462,1.4507,1.4517,1.4572,1.4573,1.4574,1.4598,1.4622,1.4621,1.4623,1.4609,1.4609,1.461,1.461,1.461,1.461,1.4446,1.4462,1.4506,1.4544,1.457,1.4604,1.4631,1.4658,1.4689,1.4686,1.4686,1.4676,1.4556,1.4527,1.4615,1.4614,1.4614,1.4613,1.4613,1.4575,1.4546,1.4614,1.464,1.4686,1.4733,1.4732,1.4788,1.4811,1.484,1.4825,1.4736,1.4729,1.472,1.4696,1.4822,1.4822,1.4822,1.4822,1.4644,1.4639,1.4711,1.4753,1.4794,1.4801,1.4885,1.4908,1.4928,1.4944,1.4926,1.4894,1.4884,1.4883,1.487,1.4848,1.5011,1.5011,1.5011,1.4724,1.4724,1.4792,1.4807,1.4844,1.4878,1.4957,1.5011,1.5028,1.5019,1.4957,1.4949,1.4898,1.488,1.487,1.485,1.4809,0,0]},{"header":{"parameterUnit":"m.s-1","parameterCategory":1,"la1":30.2992,"la2":30.254,"lo1":-89.0895,"lo2":-89.0443,"dy":0.0025,"dx":0.0025,"nx":19,"ny":19,"refTime":"2026-05-02T03:00:00:Z","depth":0,"parameterNumber":3,"parameterNumberName":"V-component_of_WINDS"},"data":[0,0,0,-0.9339,-0.9335,-0.9106,-0.9104,-0.8816,-0.8814,0,0,0,0,0,0,0,0,0,0,0,-0.9422,-0.9421,-0.9339,-0.9334,-0.9106,-0.9104,-0.8817,-0.8814,0,0,0,0,0,0,0,0,0,0,0,-0.9422,-0.9421,-0.9419,-0.9333,-0.9106,-0.9104,-0.8817,-0.8985,0,0,0,0,0,0,0,0,0,0,-0.9206,-0.93,-0.9421,-0.9419,-0.9332,-0.9106,-0.9104,-0.8993,-0.8975,-0.8925,0,-0.8896,0,-0.8851,-0.8796,-0.8795,0,0,0,-0.932,-0.9316,-0.9241,-0.9419,-0.933,-0.9107,-0.9205,-0.8983,-0.8962,-0.8901,-0.8892,-0.8881,-0.8847,-0.8794,-0.8793,-0.8578,-0.8578,0,0,-0.9333,-0.9386,-0.9256,-0.9229,-0.9278,-0.9212,-0.9198,-0.897,-0.8959,-0.8891,-0.8874,-0.8842,-0.8792,-0.879,-0.8579,-0.8578,0,0,0,-0.9379,-0.9396,-0.9327,-0.9241,-0.92,-0.9206,-0.9189,-0.8969,-0.8943,-0.887,-0.8838,-0.8791,-0.8787,-0.8579,-0.8578,-0.8616,0,0,0,-0.9386,-0.9422,-0.9333,-0.9363,-0.9205,-0.9085,-0.9194,-0.8959,-0.8931,-0.884,-0.8791,-0.8785,-0.8579,-0.8579,-0.8616,-0.8623,0,0,0,-0.9431,-0.9427,-0.9401,-0.9366,-0.9271,-0.9087,-0.9047,-0.8951,-0.8912,-0.8795,-0.8784,-0.858,-0.8579,-0.8616,-0.8623,-0.8581,0,0,0,-0.9493,-0.9435,-0.9402,-0.9323,-0.9274,-0.9116,-0.9048,-0.8925,-0.8829,-0.8789,-0.8579,-0.8579,-0.8616,-0.8623,-0.8581,-0.8555,-0.8551,0,0,-0.9449,-0.9432,-0.938,-0.9344,-0.9208,-0.9146,-0.9009,-0.8866,-0.88,-0.8653,-0.8647,-0.8616,-0.8623,-0.8581,-0.8508,-0.8505,0,0,0,-0.9384,-0.9348,-0.93,-0.9216,-0.911,-0.9016,-0.889,-0.8834,-0.8708,-0.874,-0.8588,-0.8591,-0.8563,-0.8548,-0.8545,-0.8515,-0.8575,-0.8575,-0.8575,-0.9398,-0.9323,-0.9231,-0.9127,-0.9044,-0.8913,-0.8835,-0.8737,-0.8682,-0.8646,-0.8602,-0.8568,-0.8552,-0.855,-0.852,-0.8583,-0.8583,-0.8583,-0.8583,-0.9324,-0.9259,-0.9189,-0.9076,-0.8991,-0.8889,-0.8756,-0.8719,-0.8605,-0.8597,-0.8568,-0.8564,-0.8549,-0.8518,-0.8585,-0.8585,-0.8585,-0.8585,-0.8585,-0.9324,-0.928,-0.9219,-0.9085,-0.8987,-0.8878,-0.8774,-0.8699,-0.8626,-0.8599,-0.854,-0.8539,-0.8525,-0.8577,-0.8576,-0.8576,-0.8576,-0.8576,-0.8576,-0.9348,-0.9278,-0.9205,-0.9085,-0.9017,-0.8917,-0.878,-0.8707,-0.8605,-0.8558,-0.8557,-0.85,-0.8565,-0.8581,-0.8574,-0.8574,-0.8574,-0.8575,-0.8575,-0.93,-0.9298,-0.9186,-0.9119,-0.8966,-0.8869,-0.8775,-0.8632,-0.8559,-0.8507,-0.8455,-0.8517,-0.849,-0.8492,-0.8504,-0.8477,-0.8477,-0.8477,-0.8477,-0.9299,-0.928,-0.9145,-0.9041,-0.8929,-0.8831,-0.8691,-0.8578,-0.8459,-0.8407,-0.8399,-0.8409,-0.8415,-0.8384,-0.8388,-0.8398,-0.8345,-0.8345,-0.8345,-0.9263,-0.9229,-0.9132,-0.9025,-0.8898,-0.8787,-0.8651,-0.8522,-0.8386,-0.8338,-0.8362,-0.8368,-0.8384,-0.8394,-0.8348,-0.8356,-0.8373,0,0]}]]